Aérodrome :
LOGIN :

S'inscrire | Disclaimer

   EN    FR    IT 

 










Légende :    VFR   VFR Marginal   IFR   IFR Intensif   IFR Très Intensif
Visi : 
Plafond : 
>= 8 km
>= 3000ft
5 à 8 km
1000 à 3000 ft
1500m à 5 km
500 à 1000 ft
800 à 1500m
200 à 500 ft
< 800m
< 200 ft
Symboles :   Orages  Brouillard  Fortes neiges  Fortes précipitations  Vent > 20 kt
SIGMETs :   Divers  Orages  Givrage  Turbulence  Onde Orograph.  Cendres Volcan.






- Altitude de l'aérodrome : 40 ft
- Code IATA : RMI


LIPR - Federico Fellini Int. Rimini

DERNIER METAR :
  • 110250Z AUTO VRB02KT 9999 NCD 17/08 Q1012

METARs EXPIRÉS :
  • 110220Z AUTO 23004KT 9999 NCD 18/08 Q1013
  • 110150Z AUTO VRB02KT 9999 NCD 17/09 Q1013
  • 110120Z AUTO 23007KT 9999 NCD 21/07 Q1013
  • 110050Z AUTO 21008KT 9999 NCD 20/09 Q1013
  • 110020Z AUTO 18002KT 9999 FEW170/// 17/12 Q1013

TAF TAF LIPR
Valide du 11 à 03h jusqu'au 11 à 12h UTC


110200Z 1103/1112 VRB05KT CAVOK
BECMG 1105/1107 09010KT



MET'MAP, la Météo Aéronautique d'un coup d'oeil ! - Copyright ORBIFLY Décembre 2007 - Disclaimer

ORBIFLY MET'MAP TEAM :

Programmation & Développement : Alexandra Zaïnal
Sur une idée originale de : Baudouin d'Aumeries
Assistance à la programmation : Marc-Olivier Méhu
Soutien technique & logistique : Manuel Goepfert

Contact : metmap@orbifly.com




SOURCES & CREDITS :

   NOAA